DLH400 EDDF-KJFK

Flight info

Callsign DLH400
Flight time N/A
Altitude 36000
Route OBOKA3D OBOKA Z28 DIBIR DCT BUDIP DCT RAVLO Y70 OTBED DCT ABLUC DCT OZRAT DCT WETFI DCT TUGSI DCT REVNU DCT VENER/M082F380 DCT 5430N02000W 5330N03000W 5130N04000W 4930N05000W DCT IBERG/N0471F380 N364A TUSKY DCT PLYMM PARCH4
Aircraft A346/H-SDE2E3FGHIJ3J4J5M1P2RWXYZ/LB1D1

Departure

Time 2026-05-08 05:03
Airport Frankfurt Main Airport (EDDF)

Arrival

Time N/A
Airport John F. Kennedy International Airport (KJFK)
Time Latitude Longitude Altitude Speed Heading
2026-05-08 04:15 50.04768 8.56501 370 ft 0 kts 339°
2026-05-08 04:49 50.04766 8.56502 364 ft 2 kts 339°
2026-05-08 04:50 50.04742 8.56517 369 ft 4 kts 337°
2026-05-08 04:50 50.04717 8.56532 368 ft 4 kts 342°
2026-05-08 04:50 50.04694 8.56538 368 ft 4 kts
2026-05-08 04:50 50.04677 8.56529 367 ft 4 kts 25°
2026-05-08 04:51 50.04653 8.56513 368 ft 4 kts 22°
2026-05-08 04:51 50.04632 8.56499 366 ft 2 kts 25°
2026-05-08 04:51 50.04648 8.56506 371 ft 4 kts
2026-05-08 04:51 50.04663 8.56499 370 ft 4 kts 328°
2026-05-08 04:52 50.04676 8.56473 366 ft 4 kts 298°
2026-05-08 04:52 50.04679 8.56450 368 ft 4 kts 262°
2026-05-08 04:52 50.04672 8.56422 371 ft 3 kts 242°
2026-05-08 04:52 50.04671 8.56427 370 ft 4 kts 193°
2026-05-08 04:53 50.04655 8.56433 367 ft 4 kts 155°
2026-05-08 04:53 50.04666 8.56428 364 ft 4 kts 200°
2026-05-08 04:53 50.04660 8.56414 371 ft 4 kts 245°
2026-05-08 04:53 50.04659 8.56405 371 ft 0 kts 250°
2026-05-08 04:55 50.04659 8.56403 371 ft 1 kts 250°
2026-05-08 04:56 50.04653 8.56379 370 ft 4 kts 250°
2026-05-08 04:56 50.04640 8.56327 368 ft 7 kts 250°
2026-05-08 04:56 50.04621 8.56246 366 ft 9 kts 250°
2026-05-08 04:56 50.04596 8.56138 368 ft 12 kts 250°
2026-05-08 04:57 50.04560 8.56012 368 ft 14 kts 231°
2026-05-08 04:57 50.04476 8.55935 370 ft 15 kts 196°
2026-05-08 04:57 50.04371 8.55918 365 ft 16 kts 167°
2026-05-08 04:57 50.04290 8.55953 369 ft 12 kts 172°
2026-05-08 04:58 50.04216 8.55927 366 ft 11 kts 194°
2026-05-08 04:58 50.04133 8.55950 366 ft 14 kts 160°
2026-05-08 04:58 50.04045 8.55922 361 ft 16 kts 240°
2026-05-08 04:58 50.04000 8.55748 362 ft 19 kts 250°
2026-05-08 04:59 50.03952 8.55542 360 ft 21 kts 250°
2026-05-08 04:59 50.03899 8.55320 363 ft 23 kts 249°
2026-05-08 04:59 50.03836 8.55059 363 ft 25 kts 249°
2026-05-08 04:59 50.03773 8.54795 362 ft 26 kts 249°
2026-05-08 05:00 50.03712 8.54544 357 ft 26 kts 249°
2026-05-08 05:00 50.03648 8.54272 358 ft 28 kts 250°
2026-05-08 05:00 50.03587 8.54018 356 ft 23 kts 250°
2026-05-08 05:00 50.03529 8.53773 356 ft 25 kts 249°
2026-05-08 05:01 50.03485 8.53592 353 ft 12 kts 250°
2026-05-08 05:01 50.03445 8.53464 355 ft 14 kts 219°
2026-05-08 05:01 50.03360 8.53515 355 ft 16 kts 131°
2026-05-08 05:01 50.03314 8.53662 353 ft 16 kts 82°
2026-05-08 05:02 50.03349 8.53830 358 ft 17 kts 70°
2026-05-08 05:02 50.03429 8.54164 357 ft 62 kts 69°
2026-05-08 05:02 50.03650 8.55082 358 ft 118 kts 69°
2026-05-08 05:02 50.03993 8.56524 367 ft 164 kts 69°
2026-05-08 05:03 50.04426 8.58364 577 ft 187 kts 69°
2026-05-08 05:03 50.04827 8.60114 1143 ft 188 kts 70°
2026-05-08 05:03 50.05251 8.62065 1800 ft 191 kts 71°
2026-05-08 05:03 50.05668 8.64035 2429 ft 190 kts 71°
2026-05-08 05:04 50.06101 8.66023 2889 ft 198 kts 70°
2026-05-08 05:04 50.06580 8.68108 3227 ft 212 kts 70°
2026-05-08 05:04 50.07166 8.70296 3546 ft 227 kts 57°
2026-05-08 05:04 50.08371 8.71975 3857 ft 242 kts 26°
2026-05-08 05:05 50.09968 8.73030 4254 ft 257 kts 21°
2026-05-08 05:05 50.11661 8.74099 4787 ft 265 kts 22°
2026-05-08 05:05 50.13369 8.75215 5505 ft 267 kts 22°
2026-05-08 05:05 50.15087 8.76358 6242 ft 270 kts 22°
2026-05-08 05:06 50.16845 8.77541 6950 ft 273 kts 22°
2026-05-08 05:06 50.18632 8.78748 7670 ft 277 kts 22°
2026-05-08 05:06 50.20427 8.79963 8416 ft 281 kts 22°
2026-05-08 05:06 50.22238 8.81190 9150 ft 286 kts 22°
2026-05-08 05:07 50.24140 8.82123 9841 ft 289 kts
2026-05-08 05:07 50.26186 8.81831 10505 ft 291 kts 340°
2026-05-08 05:07 50.27984 8.80289 10894 ft 303 kts 317°
2026-05-08 05:07 50.29277 8.77622 11201 ft 317 kts 293°
2026-05-08 05:08 50.30040 8.74269 11551 ft 333 kts 287°
2026-05-08 05:08 50.30766 8.70768 11857 ft 349 kts 287°
2026-05-08 05:08 50.31552 8.67035 12178 ft 366 kts 288°
2026-05-08 05:08 50.32388 8.63147 12621 ft 377 kts 288°
2026-05-08 05:09 50.33238 8.59236 13373 ft 380 kts 288°
2026-05-08 05:09 50.34095 8.55303 14140 ft 382 kts 288°
2026-05-08 05:09 50.34954 8.51353 14833 ft 385 kts 288°
2026-05-08 05:09 50.35817 8.47376 15479 ft 388 kts 288°
2026-05-08 05:10 50.36685 8.43363 16123 ft 391 kts 288°
2026-05-08 05:10 50.37531 8.34990 17376 ft 396 kts 266°
2026-05-08 05:10 50.37038 8.30728 18024 ft 399 kts 254°
2026-05-08 05:11 50.36223 8.26555 18647 ft 402 kts 252°
2026-05-08 05:11 50.35359 8.22359 19162 ft 405 kts 252°
2026-05-08 05:11 50.34490 8.18140 19701 ft 409 kts 252°
2026-05-08 05:11 50.33621 8.13876 20266 ft 411 kts 252°
2026-05-08 05:12 50.32752 8.09583 20807 ft 414 kts 252°
2026-05-08 05:12 50.31881 8.05266 21355 ft 417 kts 252°
2026-05-08 05:12 50.31003 8.00916 21889 ft 420 kts 252°
2026-05-08 05:12 50.30151 7.96530 22403 ft 423 kts 257°
2026-05-08 05:13 50.29832 7.91940 22864 ft 427 kts 271°
2026-05-08 05:13 50.30254 7.87330 23398 ft 430 kts 284°
2026-05-08 05:13 50.31333 7.82939 23884 ft 434 kts 293°
2026-05-08 05:13 50.32596 7.78630 24316 ft 436 kts 294°
2026-05-08 05:14 50.33887 7.74282 24714 ft 440 kts 294°
2026-05-08 05:14 50.35374 7.70076 25105 ft 445 kts 304°
2026-05-08 05:14 50.37468 7.66491 25523 ft 450 kts 318°
2026-05-08 05:14 50.40074 7.63751 25950 ft 455 kts 331°
2026-05-08 05:15 50.42964 7.61686 26386 ft 458 kts 334°
2026-05-08 05:15 50.45903 7.59711 26770 ft 461 kts 335°
2026-05-08 05:15 50.48862 7.57721 27153 ft 464 kts 334°
2026-05-08 05:15 50.51835 7.55691 27548 ft 466 kts 334°
2026-05-08 05:16 50.54761 7.53474 27969 ft 467 kts 330°
2026-05-08 05:16 50.57602 7.51008 28521 ft 465 kts 327°
2026-05-08 05:16 50.60345 7.48337 29150 ft 462 kts 325°
2026-05-08 05:16 50.63074 7.45556 29765 ft 460 kts 324°
2026-05-08 05:17 50.65744 7.42804 30290 ft 459 kts 324°
2026-05-08 05:17 50.68358 7.39931 30754 ft 456 kts 321°
2026-05-08 05:17 50.70847 7.36849 31227 ft 454 kts 317°
2026-05-08 05:17 50.73210 7.33554 31679 ft 452 kts 314°
2026-05-08 05:18 50.75432 7.30072 32126 ft 449 kts 311°
2026-05-08 05:18 50.77520 7.26397 32579 ft 447 kts 308°
2026-05-08 05:18 50.79456 7.22565 33037 ft 445 kts 304°
2026-05-08 05:18 50.81270 7.18603 33464 ft 443 kts 303°
2026-05-08 05:19 50.83048 7.14619 33909 ft 442 kts 303°
2026-05-08 05:19 50.84815 7.10639 34291 ft 441 kts 303°
2026-05-08 05:19 50.86581 7.06659 34597 ft 441 kts 303°
2026-05-08 05:19 50.88352 7.02670 34817 ft 444 kts 303°
2026-05-08 05:20 50.90129 6.98666 34986 ft 447 kts 303°
2026-05-08 05:20 50.91921 6.94619 35209 ft 449 kts 303°
2026-05-08 05:20 50.93715 6.90556 35439 ft 450 kts 303°
2026-05-08 05:20 50.95516 6.86472 35663 ft 452 kts 303°
2026-05-08 05:21 50.97321 6.82376 35878 ft 453 kts 303°
2026-05-08 05:21 50.99133 6.78257 36068 ft 455 kts 303°
2026-05-08 05:21 51.00946 6.74128 36101 ft 457 kts 302°
2026-05-08 05:22 51.04581 6.65836 36107 ft 457 kts 302°
2026-05-08 05:22 51.08213 6.57518 36108 ft 458 kts 302°
2026-05-08 05:23 51.11842 6.49177 36109 ft 458 kts 302°
2026-05-08 05:23 51.14854 6.42232 36112 ft 458 kts 302°
2026-05-08 05:24 51.18475 6.33858 36110 ft 458 kts 302°
2026-05-08 05:24 51.22110 6.25431 36106 ft 458 kts 302°
2026-05-08 05:25 51.25717 6.17038 36110 ft 458 kts 302°
2026-05-08 05:25 51.29294 6.08597 36107 ft 458 kts 301°
2026-05-08 05:26 51.32776 6.00053 36100 ft 458 kts 301°
2026-05-08 05:26 51.36274 5.91607 36104 ft 459 kts 303°
2026-05-08 05:27 51.40246 5.83576 36105 ft 461 kts 309°
2026-05-08 05:27 51.44634 5.76043 36124 ft 462 kts 311°
2026-05-08 05:28 51.49072 5.68574 36116 ft 462 kts 311°
2026-05-08 05:28 51.53501 5.61089 36116 ft 462 kts 311°
2026-05-08 05:29 51.57923 5.53580 36114 ft 462 kts 311°
2026-05-08 05:29 51.62338 5.46059 36114 ft 462 kts 311°
2026-05-08 05:30 51.66746 5.38525 36111 ft 462 kts 311°
2026-05-08 05:30 51.71150 5.30975 36126 ft 462 kts 310°
2026-05-08 05:31 51.75551 5.23406 36118 ft 462 kts 310°
2026-05-08 05:31 51.79945 5.15826 36116 ft 462 kts 310°
2026-05-08 05:32 51.84337 5.08225 36115 ft 462 kts 310°
2026-05-08 05:32 51.88726 5.00607 36116 ft 462 kts 310°
2026-05-08 05:33 51.93104 4.92985 36117 ft 462 kts 310°
2026-05-08 05:33 51.97487 4.85330 36116 ft 462 kts 310°
2026-05-08 05:34 52.01857 4.77676 36116 ft 462 kts 310°
2026-05-08 05:34 52.06223 4.70003 36125 ft 462 kts 310°
2026-05-08 05:35 52.10584 4.62315 36113 ft 462 kts 310°
2026-05-08 05:35 52.14939 4.54615 36118 ft 462 kts 310°
2026-05-08 05:36 52.19289 4.46899 36112 ft 462 kts 310°
2026-05-08 05:36 52.23631 4.39175 36119 ft 461 kts 310°
2026-05-08 05:37 52.27968 4.31435 36116 ft 461 kts 310°
2026-05-08 05:37 52.32295 4.23688 36112 ft 461 kts 310°
2026-05-08 05:38 52.36618 4.15923 36117 ft 461 kts 310°
2026-05-08 05:38 52.40936 4.08144 36118 ft 461 kts 309°
2026-05-08 05:39 52.45250 4.00349 36121 ft 461 kts 309°
2026-05-08 05:39 52.49554 3.92545 36127 ft 461 kts 309°
2026-05-08 05:40 52.53857 3.84719 36127 ft 461 kts 309°
2026-05-08 05:40 52.58150 3.76888 36121 ft 461 kts 309°
2026-05-08 05:41 52.62437 3.69043 36122 ft 461 kts 309°
2026-05-08 05:41 52.66693 3.61228 36123 ft 461 kts 309°
2026-05-08 05:42 52.70972 3.53349 36119 ft 461 kts 309°
2026-05-08 05:42 52.75248 3.45450 36130 ft 461 kts 309°
2026-05-08 05:43 52.79518 3.37536 36114 ft 461 kts 309°
2026-05-08 05:43 52.83783 3.29606 36115 ft 461 kts 309°
2026-05-08 05:44 52.87789 3.21339 36112 ft 459 kts 302°
2026-05-08 05:44 52.90951 3.12206 36115 ft 456 kts 293°
2026-05-08 05:45 52.93205 3.02401 36130 ft 454 kts 284°
2026-05-08 05:45 52.94668 2.92220 36126 ft 454 kts 281°
2026-05-08 05:46 52.96000 2.81976 36123 ft 454 kts 280°
2026-05-08 05:46 52.97327 2.71730 36122 ft 454 kts 280°
2026-05-08 05:47 52.98650 2.61470 36128 ft 453 kts 280°
2026-05-08 05:47 52.99964 2.51225 36133 ft 453 kts 280°
2026-05-08 05:48 53.01272 2.40965 36125 ft 454 kts 280°
2026-05-08 05:48 53.02571 2.30690 36127 ft 454 kts 280°
2026-05-08 05:49 53.03861 2.20417 36122 ft 454 kts 280°
2026-05-08 05:49 53.05142 2.10121 36117 ft 454 kts 280°
2026-05-08 05:50 53.06400 1.99908 36132 ft 454 kts 279°
2026-05-08 05:50 53.07668 1.89537 36131 ft 454 kts 279°
2026-05-08 05:51 53.08908 1.79299 36127 ft 454 kts 279°
2026-05-08 05:51 53.10150 1.68984 36120 ft 454 kts 279°
2026-05-08 05:52 53.11383 1.58657 36129 ft 454 kts 279°
2026-05-08 05:52 53.12607 1.48332 36133 ft 454 kts 279°
2026-05-08 05:53 53.13820 1.38007 36127 ft 454 kts 279°
2026-05-08 05:53 53.15026 1.27671 36120 ft 454 kts 279°
2026-05-08 05:54 53.16222 1.17338 36117 ft 454 kts 279°
2026-05-08 05:54 53.17408 1.07001 36119 ft 454 kts 279°
2026-05-08 05:55 53.18585 0.96664 36122 ft 453 kts 279°
2026-05-08 05:55 53.19753 0.86321 36121 ft 453 kts 279°
2026-05-08 05:56 53.20912 0.75978 36113 ft 453 kts 279°
2026-05-08 05:56 53.22061 0.65631 36112 ft 453 kts 278°
2026-05-08 05:57 53.23200 0.55284 36107 ft 453 kts 278°
2026-05-08 05:57 53.24330 0.44930 36111 ft 452 kts 278°
2026-05-08 05:58 53.25451 0.34578 36111 ft 452 kts 278°
2026-05-08 05:58 53.26557 0.24293 36103 ft 452 kts 278°
2026-05-08 05:59 53.27666 0.13865 36099 ft 452 kts 278°
2026-05-08 05:59 53.28763 0.03573 36097 ft 452 kts 279°
2026-05-08 06:00 53.30091 -0.06709 36087 ft 452 kts 281°
2026-05-08 06:00 53.31446 -0.16975 36088 ft 451 kts 281°
2026-05-08 06:01 53.32791 -0.27247 36091 ft 451 kts 281°
2026-05-08 06:01 53.34125 -0.37524 36084 ft 451 kts 281°
2026-05-08 06:02 53.35450 -0.47813 36086 ft 451 kts 280°
2026-05-08 06:02 53.36765 -0.58103 36086 ft 451 kts 280°
2026-05-08 06:03 53.38073 -0.68406 36082 ft 451 kts 280°
2026-05-08 06:03 53.39369 -0.78699 36083 ft 451 kts 280°
2026-05-08 06:04 53.40658 -0.89009 36075 ft 451 kts 280°
2026-05-08 06:04 53.41937 -0.99317 36079 ft 451 kts 280°
2026-05-08 06:05 53.43203 -1.09618 36078 ft 450 kts 280°
2026-05-08 06:05 53.44461 -1.19905 36075 ft 449 kts 280°
2026-05-08 06:06 53.45710 -1.30190 36071 ft 449 kts 280°
2026-05-08 06:06 53.46949 -1.40484 36075 ft 449 kts 280°
2026-05-08 06:07 53.48179 -1.50782 36071 ft 449 kts 280°
2026-05-08 06:07 53.49397 -1.61073 36071 ft 448 kts 280°
2026-05-08 06:08 53.50609 -1.71383 36068 ft 447 kts 280°
2026-05-08 06:08 53.51808 -1.81650 36073 ft 447 kts 280°
2026-05-08 06:09 53.52796 -1.90180 36069 ft 447 kts 280°
2026-05-08 06:09 53.53978 -2.00463 36063 ft 447 kts 280°
2026-05-08 06:10 53.55148 -2.10730 36066 ft 446 kts 280°
2026-05-08 06:10 53.56312 -2.21023 36068 ft 444 kts 280°
2026-05-08 06:11 53.57453 -2.31190 36060 ft 444 kts 280°
2026-05-08 06:11 53.58592 -2.41420 36061 ft 444 kts 279°
2026-05-08 06:12 53.59723 -2.51662 36056 ft 444 kts 279°
2026-05-08 06:12 53.60843 -2.61899 36061 ft 443 kts 279°
2026-05-08 06:13 53.61947 -2.72084 36056 ft 440 kts 279°
2026-05-08 06:13 53.63042 -2.82245 36064 ft 440 kts 279°
2026-05-08 06:14 53.64127 -2.92397 36051 ft 440 kts 279°
2026-05-08 06:14 53.65203 -3.02558 36052 ft 440 kts 279°
2026-05-08 06:15 53.66270 -3.12729 36065 ft 440 kts 279°
2026-05-08 06:15 53.67314 -3.22749 36057 ft 435 kts 279°
2026-05-08 06:16 53.68238 -3.31708 36057 ft 434 kts 279°
2026-05-08 06:16 53.69267 -3.41764 36065 ft 434 kts 279°
2026-05-08 06:17 53.70797 -3.56852 36057 ft 434 kts 278°
2026-05-08 06:17 53.71804 -3.66911 36061 ft 433 kts 278°
2026-05-08 06:18 53.72800 -3.76931 36059 ft 431 kts 278°
2026-05-08 06:18 53.73784 -3.86945 36058 ft 431 kts 278°
2026-05-08 06:19 53.74760 -3.96962 36057 ft 431 kts 278°
2026-05-08 06:19 53.75728 -4.06973 36058 ft 431 kts 278°
2026-05-08 06:20 53.76687 -4.16992 36058 ft 431 kts 278°
2026-05-08 06:20 53.77641 -4.27013 36054 ft 431 kts 277°
2026-05-08 06:21 53.78582 -4.37041 36051 ft 431 kts 277°
2026-05-08 06:21 53.79512 -4.47063 36043 ft 431 kts 277°
2026-05-08 06:22 53.80100 -4.57148 36043 ft 430 kts 272°
2026-05-08 06:22 53.80456 -4.67263 36044 ft 430 kts 272°
2026-05-08 06:23 53.80796 -4.77311 36053 ft 429 kts 272°
2026-05-08 06:23 53.81125 -4.87413 36050 ft 429 kts 272°
2026-05-08 06:24 53.81444 -4.97504 36049 ft 429 kts 271°
2026-05-08 06:24 53.81754 -5.07595 36050 ft 429 kts 271°
2026-05-08 06:25 53.82058 -5.17694 36050 ft 429 kts 271°
2026-05-08 06:25 53.82353 -5.27785 36053 ft 428 kts 271°
2026-05-08 06:26 53.82638 -5.37858 36048 ft 427 kts 271°
2026-05-08 06:26 53.82984 -5.47923 36047 ft 428 kts 274°
2026-05-08 06:27 53.83828 -5.57933 36047 ft 429 kts 278°
2026-05-08 06:27 53.84889 -5.67897 36047 ft 429 kts 278°
2026-05-08 06:28 53.85951 -5.77860 36075 ft 429 kts 278°
2026-05-08 06:28 53.87007 -5.87841 36047 ft 430 kts 277°
2026-05-08 06:29 53.88053 -5.97822 36045 ft 430 kts 277°
2026-05-08 06:29 53.89091 -6.07813 36044 ft 430 kts 277°
2026-05-08 06:30 53.90120 -6.17801 36044 ft 429 kts 277°
2026-05-08 06:30 53.91142 -6.27793 36044 ft 429 kts 277°
2026-05-08 06:31 53.92156 -6.37786 36045 ft 428 kts 277°
2026-05-08 06:31 53.93158 -6.47769 36042 ft 428 kts 277°
2026-05-08 06:32 53.94150 -6.57743 36041 ft 428 kts 277°
2026-05-08 06:32 53.95136 -6.67731 36041 ft 428 kts 277°
2026-05-08 06:33 53.96112 -6.77719 36038 ft 428 kts 277°
2026-05-08 06:33 53.97082 -6.87712 36049 ft 428 kts 276°
2026-05-08 06:34 53.98041 -6.97685 36038 ft 427 kts 276°
2026-05-08 06:34 53.98988 -7.07655 36037 ft 427 kts 276°
2026-05-08 06:35 54.00028 -7.17598 36032 ft 428 kts 279°
2026-05-08 06:35 54.01547 -7.27348 36034 ft 430 kts 283°
2026-05-08 06:36 54.03221 -7.37120 36040 ft 430 kts 283°
2026-05-08 06:36 54.04895 -7.46899 36033 ft 429 kts 282°
2026-05-08 06:37 54.06554 -7.56671 36037 ft 429 kts 282°
2026-05-08 06:37 54.08206 -7.66451 36033 ft 429 kts 282°
2026-05-08 06:38 54.09850 -7.76234 36031 ft 429 kts 282°
2026-05-08 06:38 54.11484 -7.86017 36031 ft 429 kts 282°
2026-05-08 06:39 54.13111 -7.95810 36053 ft 429 kts 282°
2026-05-08 06:39 54.14730 -8.05600 36034 ft 428 kts 282°
2026-05-08 06:40 54.16339 -8.15401 36035 ft 428 kts 282°
2026-05-08 06:40 54.17938 -8.25190 36029 ft 428 kts 281°
2026-05-08 06:41 54.19530 -8.34994 36027 ft 428 kts 281°
2026-05-08 06:41 54.21115 -8.44808 36042 ft 428 kts 281°
2026-05-08 06:42 54.22695 -8.54648 36043 ft 429 kts 281°
2026-05-08 06:42 54.24270 -8.64513 36033 ft 429 kts 281°
2026-05-08 06:43 54.25834 -8.74381 36038 ft 429 kts 281°
2026-05-08 06:43 54.27391 -8.84257 36039 ft 429 kts 281°
2026-05-08 06:44 54.28929 -8.94069 36038 ft 429 kts 281°
2026-05-08 06:44 54.30472 -9.03967 36037 ft 429 kts 281°
2026-05-08 06:45 54.32006 -9.13859 36037 ft 429 kts 280°
2026-05-08 06:45 54.33530 -9.23761 36042 ft 429 kts 280°
2026-05-08 06:46 54.35047 -9.33676 36045 ft 429 kts 280°
2026-05-08 06:46 54.36555 -9.43592 36053 ft 429 kts 280°
2026-05-08 06:47 54.38056 -9.53518 36074 ft 430 kts 280°
2026-05-08 06:47 54.39555 -9.63494 36058 ft 432 kts 280°
2026-05-08 06:48 54.41051 -9.73511 36072 ft 433 kts 279°
2026-05-08 06:48 54.42543 -9.83561 36067 ft 433 kts 279°
2026-05-08 06:49 54.44024 -9.93616 36071 ft 433 kts 279°
2026-05-08 06:49 54.44760 -9.98638 36071 ft 433 kts 279°
2026-05-08 06:50 54.46462 -10.13144 36074 ft 429 kts 273°
2026-05-08 06:50 54.46942 -10.23347 36084 ft 427 kts 269°
2026-05-08 06:51 54.47213 -10.33592 36079 ft 429 kts 269°
2026-05-08 06:51 54.47469 -10.43852 36077 ft 429 kts 269°
2026-05-08 06:52 54.47715 -10.54119 36076 ft 429 kts 269°
2026-05-08 06:52 54.47952 -10.64371 36079 ft 429 kts 269°
2026-05-08 06:53 54.48181 -10.74633 36080 ft 429 kts 268°
2026-05-08 06:53 54.48400 -10.84909 36086 ft 430 kts 268°
2026-05-08 06:54 54.48612 -10.95209 36083 ft 431 kts 268°
2026-05-08 06:54 54.48814 -11.05451 36082 ft 430 kts 268°
2026-05-08 06:55 54.49009 -11.15755 36082 ft 430 kts 268°
2026-05-08 06:55 54.49191 -11.26085 36093 ft 433 kts 268°
2026-05-08 06:56 54.49222 -11.27833 36091 ft 433 kts 268°